Fort Morgan, CO

1:47 AM MDT on October 24, 2017 (GMT -0600)
Fort Morgan

Weather History for KFMM - December, 2012

Change the Weather History Date:

Monday, December 3, 2012

  Actual Average (KAKO) Record (KAKO)
Temperature  
Mean Temperature 40 °F -  
Max Temperature 55 °F 42 °F 80 °F (1941)
Min Temperature 25 °F 19 °F -1 °F (1955)
Degree Days  
Heating Degree Days 25    
Moisture  
Dew Point 14 °F    
Average Humidity 36    
Maximum Humidity 70    
Minimum Humidity 13    
Precipitation  
Precipitation 0.00 in - - ()
Sea Level Pressure  
Sea Level Pressure 29.97 in    
Wind  
Wind Speed 15 mph ()    
Max Wind Speed 45 mph    
Max Gust Speed 60 mph    
Visibility 10.0 miles    
Events      
Averages and records for this station are not official NWS values.
T = Trace of Precipitation, MM = Missing Value Source: Averaged Metar Reports

Daily Weather History Graph

Daily Weather History Graph

Search for Another Location

Airport or City:

Trip Planner

Search our weather history database for the weather conditions in past years. The results will help you decide how hot, cold, wet, or windy it might be!

Date:

Astronomy

Dec. 03, 2012 Rise Set
Actual Time 7:01 AM MST 4:29 PM MST
Civil Twilight 6:30 AM MST 4:59 PM MST
Nautical Twilight 5:57 AM MST 5:33 PM MST
Astronomical Twilight 5:24 AM MST 6:06 PM MST
Moon 9:18 PM MST (12/3) 10:25 AM MST (12/3)
Length of Visible Light 10h 28m
Length of Day
9h 27m
Waning Gibbous, 77% of the Moon is Illuminated
Dec 3
Waning Gibbous
Dec 6
Last Quarter
Dec 13
New
Dec 19
First Quarter
Dec 28
Full

Hourly Weather History & Observations

Time (MST) Temp. Windchill Dew Point Humidity Pressure Visibility Wind Dir Wind Speed Gust Speed Precip Events Conditions
12:15 AM 33.1 °F 24.4 °F 24.1 °F 70% 29.62 in 10.0 mi West 11.5 mph - N/A   Clear
12:35 AM 34.5 °F 31.6 °F 23.9 °F 65% 29.62 in 10.0 mi NW 3.5 mph - N/A   Clear
12:55 AM 37.0 °F 30.4 °F 23.9 °F 59% 29.63 in 10.0 mi West 9.2 mph - N/A   Clear
1:15 AM 35.1 °F 28.6 °F 23.9 °F 64% 29.63 in 10.0 mi West 8.1 mph - N/A   Clear
1:35 AM 33.8 °F 25.3 °F 25.0 °F 70% 29.63 in 10.0 mi West 11.5 mph - N/A   Clear
1:55 AM 34.3 °F 26.5 °F 25.5 °F 70% 29.66 in 10.0 mi West 10.4 mph - N/A   Clear
2:15 AM 35.6 °F 28.0 °F 25.3 °F 66% 29.67 in 10.0 mi West 10.4 mph - N/A   Clear
2:35 AM 36.5 °F 30.3 °F 24.4 °F 62% 29.67 in 10.0 mi NW 8.1 mph - N/A   Clear
2:55 AM 37.9 °F 30.9 °F 24.1 °F 57% 29.68 in 10.0 mi West 10.4 mph 17.3 mph N/A   Clear
3:15 AM 34.0 °F 28.8 °F 23.9 °F 67% 29.68 in 10.0 mi WNW 5.8 mph - N/A   Clear
3:35 AM 35.1 °F 28.6 °F 24.1 °F 64% 29.71 in 10.0 mi WNW 8.1 mph - N/A   Clear
3:55 AM 36.9 °F 30.1 °F 24.6 °F 61% 29.71 in 10.0 mi West 9.2 mph - N/A   Clear
4:15 AM 46.6 °F - 28.2 °F 49% 29.74 in 10.0 mi West 18.4 mph 26.5 mph N/A   Clear
4:35 AM 49.5 °F - 29.5 °F 46% 29.78 in 10.0 mi NW 23.0 mph 33.4 mph N/A   Clear
5:15 AM 48.9 °F - 25.9 °F 41% 29.79 in 10.0 mi NW 33.4 mph 41.4 mph N/A   Clear
5:35 AM 48.2 °F - 22.8 °F 37% 29.81 in 10.0 mi NW 31.1 mph 40.3 mph N/A   Clear
5:55 AM 48.6 °F - 20.3 °F 33% 29.82 in 10.0 mi NW 36.8 mph 50.6 mph N/A   Clear
6:15 AM 47.7 °F - 19.8 °F 33% 29.83 in 10.0 mi NW 33.4 mph 51.8 mph N/A   Clear
6:35 AM 47.8 °F - 16.7 °F 29% 29.84 in 7.0 mi NW 41.4 mph 54.1 mph N/A   Clear
6:55 AM 47.3 °F - 15.1 °F 28% 29.86 in 10.0 mi NW 43.7 mph 59.8 mph N/A   Clear
7:15 AM 45.7 °F 35.7 °F 17.1 °F 32% 29.89 in 10.0 mi NNW 33.4 mph 46.0 mph N/A   Clear
7:35 AM 44.2 °F 33.9 °F 18.5 °F 36% 29.92 in 10.0 mi NNW 32.2 mph 42.6 mph N/A   Clear
8:15 AM 44.6 °F 34.1 °F 19.6 °F 37% 29.95 in 10.0 mi NNW 34.5 mph 42.6 mph N/A   Clear
8:35 AM 45.3 °F 34.8 °F 18.3 °F 34% 29.94 in 10.0 mi NNW 36.8 mph 46.0 mph N/A   Clear
8:55 AM 46.6 °F - 15.3 °F 29% 29.96 in 10.0 mi NNW 42.6 mph 54.1 mph N/A   Clear
9:15 AM 47.5 °F - 15.1 °F 27% 29.97 in 10.0 mi NNW 44.9 mph 55.2 mph N/A   Clear
9:35 AM 48.6 °F - 14.9 °F 26% 29.99 in 10.0 mi NNW 35.7 mph 46.0 mph N/A   Clear
9:55 AM 50.2 °F - 13.6 °F 23% 30.00 in 10.0 mi NNW 34.5 mph 48.3 mph N/A   Clear
10:15 AM 51.1 °F - 11.1 °F 20% 30.00 in 10.0 mi NNW 34.5 mph 40.3 mph N/A   Clear
10:35 AM 52.0 °F - 12.2 °F 20% 30.01 in 10.0 mi NNW 27.6 mph 38.0 mph N/A   Clear
10:55 AM 52.9 °F - 13.6 °F 21% 30.00 in 10.0 mi North 35.7 mph 42.6 mph N/A   Clear
11:15 AM 52.7 °F - 13.1 °F 21% 29.99 in 10.0 mi NNW 35.7 mph 43.7 mph N/A   Clear
11:35 AM 53.8 °F - 11.7 °F 19% 30.00 in 10.0 mi North 31.1 mph 40.3 mph N/A   Clear
11:55 AM 54.5 °F - 9.7 °F 17% 30.00 in 10.0 mi North 29.9 mph 39.1 mph N/A   Clear
12:15 PM 54.7 °F - 8.4 °F 16% 30.02 in 10.0 mi North 26.5 mph 36.8 mph N/A   Clear
12:35 PM 54.5 °F - 8.8 °F 16% 30.01 in 10.0 mi North 23.0 mph 29.9 mph N/A   Clear
12:55 PM 54.5 °F - 9.3 °F 16% 30.02 in 10.0 mi NNE 19.6 mph 25.3 mph N/A   Clear
1:15 PM 54.9 °F - 7.2 °F 15% 30.03 in 10.0 mi North 19.6 mph 25.3 mph N/A   Clear
1:35 PM 55.2 °F - 7.0 °F 14% 30.03 in 10.0 mi North 19.6 mph 25.3 mph N/A   Clear
1:55 PM 54.5 °F - 7.7 °F 15% 30.03 in 10.0 mi North 19.6 mph 27.6 mph N/A   Clear
2:15 PM 54.5 °F - 7.2 °F 15% 30.03 in 10.0 mi North 21.9 mph - N/A   Clear
2:35 PM 54.5 °F - 4.5 °F 13% 30.04 in 10.0 mi North 17.3 mph 24.2 mph N/A   Clear
2:55 PM 53.6 °F - 3.2 °F 13% 30.04 in 10.0 mi North 16.1 mph 26.5 mph N/A   Clear
3:15 PM 52.7 °F - 4.3 °F 14% 30.04 in 10.0 mi North 16.1 mph - N/A   Clear
3:35 PM 50.9 °F - 4.8 °F 15% 30.04 in 10.0 mi NNE 12.7 mph - N/A   Clear
3:55 PM 47.7 °F - 5.0 °F 18% 30.07 in 10.0 mi NNE 5.8 mph - N/A   Clear
4:15 PM 45.7 °F 44.4 °F 5.7 °F 19% 30.08 in 10.0 mi NE 3.5 mph - N/A   Clear
4:35 PM 43.9 °F 41.3 °F 5.5 °F 21% 30.09 in 10.0 mi NNE 4.6 mph - N/A   Clear
4:55 PM 41.2 °F 36.6 °F 5.9 °F 23% 30.10 in 10.0 mi North 6.9 mph - N/A   Clear
5:15 PM 40.6 °F 36.7 °F 6.1 °F 24% 30.10 in 10.0 mi NNE 5.8 mph - N/A   Clear
5:35 PM 40.5 °F 35.8 °F 6.3 °F 24% 30.12 in 10.0 mi ENE 6.9 mph - N/A   Clear
5:55 PM 39.4 °F 34.5 °F 5.9 °F 25% 30.12 in 10.0 mi NE 6.9 mph - N/A   Clear
6:15 PM 38.8 °F 35.4 °F 6.3 °F 26% 30.13 in 10.0 mi SSE 4.6 mph - N/A   Clear
6:35 PM 37.6 °F 33.1 °F 6.8 °F 28% 30.14 in 10.0 mi South 5.8 mph - N/A   Clear
6:55 PM 37.8 °F 35.3 °F 8.4 °F 30% 30.14 in 10.0 mi South 3.5 mph - N/A   Clear
7:15 PM 35.8 °F - 9.1 °F 33% 30.15 in 10.0 mi Calm Calm - N/A   Clear
7:35 PM 37.4 °F - 9.9 °F 32% 30.15 in 10.0 mi Calm Calm - N/A   Clear
7:55 PM 36.7 °F 34.1 °F 10.2 °F 34% 30.15 in 10.0 mi South 3.5 mph - N/A   Clear
8:15 PM 35.6 °F - 10.4 °F 35% 30.16 in 10.0 mi Calm Calm - N/A   Clear
8:35 PM 34.7 °F - 11.3 °F 38% 30.16 in 10.0 mi Calm Calm - N/A   Clear
8:55 PM 33.8 °F 29.6 °F 12.0 °F 41% 30.17 in 10.0 mi NNE 4.6 mph - N/A   Clear
9:15 PM 28.4 °F - 11.1 °F 48% 30.18 in 10.0 mi Calm Calm - N/A   Clear
9:35 PM 34.0 °F - 12.7 °F 42% 30.18 in 10.0 mi Calm Calm - N/A   Clear
9:55 PM 29.1 °F 25.4 °F 11.8 °F 49% 30.19 in 10.0 mi ENE 3.5 mph - N/A   Clear
10:15 PM 25.2 °F 19.5 °F 11.5 °F 56% 30.20 in 10.0 mi NNW 4.6 mph - N/A   Clear
10:35 PM 30.0 °F 25.2 °F 12.6 °F 48% 30.20 in 10.0 mi West 4.6 mph - N/A   Clear
10:55 PM 28.4 °F 21.2 °F 14.2 °F 55% 30.20 in 10.0 mi WNW 6.9 mph - N/A   Clear
11:15 PM 28.8 °F - 14.2 °F 55% 30.20 in 10.0 mi Calm Calm - N/A   Clear
11:35 PM 27.9 °F 21.5 °F 14.2 °F 57% 30.19 in 10.0 mi West 5.8 mph - N/A   Clear
11:55 PM 28.0 °F 22.8 °F 14.5 °F 57% 30.21 in 10.0 mi North 4.6 mph - N/A   Clear